Quillayute, WA

8:10 AM PDT on May 24, 2017 (GMT -0700)
Quillayute

Weather History for KUIL - July, 2013

Change the Weather History Date:

Wednesday, July 17, 2013

  Actual Average Record
Temperature  
Mean Temperature 63 °F 59 °F  
Max Temperature 66 °F 68 °F 96 °F (1995)
Min Temperature 59 °F 51 °F 40 °F (1988)
Degree Days  
Heating Degree Days 2 6  
Month to date heating degree days 50 116  
Since 1 June heating degree days 230 410  
Since 1 July heating degree days 50 116  
Cooling Degree Days 0 0  
Month to date cooling degree days 6 0  
Year to date cooling degree days 16 4  
Since 1 June cooling degree days 13 3  
Growing Degree Days 12 (Base 50)    
Moisture  
Dew Point 55 °F    
Average Humidity 76    
Maximum Humidity 84    
Minimum Humidity 67    
Precipitation  
Precipitation T in 0.05 in 0.72 in (1974)
Month to date precipitation T 1.20  
Year to date precipitation 58.80 53.45  
Sea Level Pressure  
Sea Level Pressure 30.13 in    
Wind  
Wind Speed 6 mph (SSW)    
Max Wind Speed 15 mph    
Max Gust Speed 23 mph    
Visibility 6 miles    
Events Rain    
T = Trace of Precipitation, MM = Missing Value Source: NWS Daily Summary

Daily Weather History Graph

Daily Weather History Graph

Search for Another Location

Airport or City:

Trip Planner

Search our weather history database for the weather conditions in past years. The results will help you decide how hot, cold, wet, or windy it might be!

Date:

Astronomy

Jul. 17, 2013 Rise Set
Actual Time 5:37 AM PDT 9:11 PM PDT
Civil Twilight 4:58 AM PDT 9:49 PM PDT
Nautical Twilight 4:06 AM PDT 10:41 PM PDT
Astronomical Twilight 2:55 AM PDT 11:51 PM PDT
Moon 4:01 PM PDT (7/17) 12:56 AM PDT (7/17)
Length of Visible Light 16h 51m
Length of Day
15h 33m
Waxing Gibbous, 68% of the Moon is Illuminated
Jul 17
Waxing Gibbous
Jul 22
Full
Jul 29
Last Quarter
Aug 6
New
Aug 14
First Quarter

Hourly Weather History & Observations

Time (PDT) Temp. Dew Point Humidity Pressure Visibility Wind Dir Wind Speed Gust Speed Precip Events Conditions
12:53 AM 63.0 °F 53.1 °F 70% 29.93 in 7.0 mi South 4.6 mph - 0.00 in Rain Light Rain
1:53 AM 61.0 °F 55.0 °F 81% 29.95 in 7.0 mi South 8.1 mph - 0.00 in   Partly Cloudy
2:03 AM 60.8 °F 55.4 °F 82% 29.96 in 7.0 mi South 10.4 mph 18.4 mph N/A   Mostly Cloudy
2:49 AM 62.6 °F 55.4 °F 77% 29.98 in 7.0 mi Variable 6.9 mph 20.7 mph N/A   Overcast
2:53 AM 62.1 °F 55.0 °F 78% 29.99 in 7.0 mi South 8.1 mph - N/A   Overcast
3:53 AM 62.1 °F 55.0 °F 78% 30.00 in 7.0 mi Variable 6.9 mph 16.1 mph N/A   Overcast
4:03 AM 62.6 °F 55.4 °F 77% 30.01 in 7.0 mi South 8.1 mph - N/A   Overcast
4:53 AM 62.1 °F 55.0 °F 78% 30.02 in 7.0 mi South 8.1 mph - N/A   Overcast
5:53 AM 62.1 °F 55.0 °F 78% 30.04 in 7.0 mi Variable 5.8 mph - N/A   Overcast
6:53 AM 62.1 °F 55.0 °F 78% 30.06 in 5.0 mi SSW 8.1 mph - N/A   Haze
7:26 AM 60.8 °F 55.4 °F 82% 30.07 in 4.0 mi South 9.2 mph - N/A   Haze
7:36 AM 60.8 °F 55.4 °F 82% 30.07 in 2.5 mi South 6.9 mph - N/A   Haze
7:53 AM 60.1 °F 55.0 °F 83% 30.08 in 1.8 mi South 6.9 mph - N/A   Haze
8:14 AM 60.8 °F 55.4 °F 82% 30.09 in 2.0 mi Variable 4.6 mph - N/A   Haze
8:32 AM 60.8 °F 55.4 °F 82% 30.10 in 1.5 mi Variable 6.9 mph - N/A   Overcast
8:53 AM 60.1 °F 55.9 °F 86% 30.11 in 2.0 mi South 5.8 mph - 0.00 in   Overcast
9:53 AM 60.1 °F 55.0 °F 83% 30.12 in 1.5 mi South 9.2 mph - N/A   Haze
10:21 AM 60.8 °F 55.4 °F 82% 30.13 in 2.5 mi Variable 5.8 mph - N/A   Overcast
10:40 AM 60.8 °F 55.4 °F 82% 30.14 in 3.0 mi SSW 9.2 mph - N/A   Haze
10:53 AM 61.0 °F 55.9 °F 83% 30.14 in 4.0 mi South 4.6 mph - N/A   Haze
11:53 AM 61.0 °F 55.0 °F 81% 30.16 in 4.0 mi South 8.1 mph - N/A   Haze
12:41 PM 64.4 °F 55.4 °F 73% 30.17 in 7.0 mi SSW 10.4 mph 17.3 mph N/A   Overcast
12:53 PM 63.0 °F 54.0 °F 72% 30.18 in 7.0 mi South 10.4 mph 19.6 mph N/A   Overcast
1:34 PM 62.6 °F 53.6 °F 72% 30.19 in 7.0 mi SSW 11.5 mph 18.4 mph N/A   Overcast
1:46 PM 62.6 °F 55.4 °F 77% 30.19 in 7.0 mi Variable 6.9 mph - N/A   Overcast
1:53 PM 64.0 °F 55.0 °F 73% 30.19 in 7.0 mi South 8.1 mph - N/A   Overcast
2:36 PM 66.2 °F 55.4 °F 68% 30.20 in 7.0 mi SW 9.2 mph - N/A   Overcast
2:53 PM 64.9 °F 54.0 °F 68% 30.20 in 8.0 mi SSW 11.5 mph - N/A   Overcast
3:53 PM 64.9 °F 54.0 °F 68% 30.21 in 7.0 mi South 6.9 mph - N/A   Overcast
4:53 PM 64.0 °F 54.0 °F 70% 30.21 in 7.0 mi SW 9.2 mph - N/A   Overcast
5:53 PM 64.9 °F 54.0 °F 68% 30.21 in 8.0 mi Variable 5.8 mph - N/A   Overcast
6:53 PM 63.0 °F 54.0 °F 72% 30.20 in 8.0 mi WSW 8.1 mph - N/A   Mostly Cloudy
7:53 PM 61.0 °F 53.1 °F 75% 30.21 in 7.0 mi SW 4.6 mph - N/A   Overcast
8:21 PM 60.8 °F 53.6 °F 77% 30.21 in 7.0 mi Calm Calm - N/A   Overcast
8:53 PM 60.1 °F 54.0 °F 80% 30.21 in 7.0 mi Calm Calm - N/A   Overcast
9:06 PM 60.8 °F 53.6 °F 77% 30.21 in 7.0 mi Calm Calm - N/A   Overcast
9:37 PM 60.8 °F 53.6 °F 77% 30.22 in 8.0 mi Calm Calm - N/A   Overcast
9:53 PM 60.1 °F 54.0 °F 80% 30.22 in 8.0 mi Calm Calm - N/A   Overcast
10:53 PM 59.0 °F 54.0 °F 83% 30.23 in 8.0 mi West 3.5 mph - N/A   Overcast
11:53 PM 59.0 °F 54.0 °F 83% 30.23 in 8.0 mi Calm Calm - N/A   Overcast